Regional Weather Roundup
Issued by NWS Green Bay, WI

Home | Current Version | Previous Version | Graphics & Text | Print | Product List | Glossary On
Versions: 1 2 3 4 5 6 7 8 9 10 11 12 13 14 15 16 17 18 19 20 21 22 23 24 25 26 27 28 29 30 31 32 33 34 35 36 37 38 39 40 41 42 43 44 45 46 47 48 49 50
445
ASUS43 KGRB 221011
RWRGRB

NORTH-CENTRAL AND NORTHEAST WISCONSIN REGIONAL WEATHER ROUNDUP
NATIONAL WEATHER SERVICE GREEN BAY WI
500 AM CDT TUE AUG 22 2017

WIZ005-009-010>012-018-019-221100-
NORTH CENTRAL WISCONSIN

CITY           SKY/WX    TMP DP  RH WIND       PRES   REMARKS
IRONWOOD       CLOUDY    56  55  97 W7        29.82S
MANITOWISH WTR CLOUDY    56  56 100 NW9       29.81R
ARBOR VITAE    MOCLDY    58  56  94 N7        29.81R
EAGLE RIVER    MOCLDY    58  57  96 NW9       29.79R
LAND O LAKES   CLOUDY    58  55  92 NW7G21    29.80R
RHINELANDER    CLOUDY    60  57  89 VRB6      29.79R
PHILLIPS       CLOUDY    58  57  96 NW8       29.82R
ANTIGO         CLOUDY    64  63  97 W13       29.76S
TOMAHAWK         N/A     60  57  89 NW10      29.80R
MERRILL        MOCLDY    64  63  94 NW10      29.78R
$$

WIZ013-073-221100-
NORTHEAST WISCONSIN

CITY           SKY/WX    TMP DP  RH WIND       PRES   REMARKS
IRON MOUNTAIN  MOCLDY    64  60  87 NW13      29.70R
MARINETTE      MOCLDY    67  63  87 VRB6      29.70S
OCONTO         MOCLDY    65  62  89 W7        29.71F
$$

WIZ017-030-035>037-045-221100-
CENTRAL WISCONSIN

CITY           SKY/WX    TMP DP  RH WIND       PRES   REMARKS
MEDFORD        CLOUDY    62  59  91 NW10      29.81R
WAUSAU         MOCLDY    65  62  90 W13       29.76R
MOSINEE        CLOUDY    64  63  94 W9        29.79S
MARSHFIELD     CLOUDY    65  61  87 W10       29.79S
WISC RAPIDS    CLOUDY    66  63  90 W9        29.81S
STEVENS POINT  CLOUDY    63  63  99 W9        29.79S
WAUPACA        CLOUDY    68  64  84 W14       29.78R
SHAWANO        CLOUDY    68  63  82 W7        29.74F
CLINTONVILLE   MOCLDY    64  61  88 W6        29.75F
WAUTOMA        CLOUDY    65  63  93 SW7       29.80R
$$

WIZ038-039-048-051-221100-
FOX VALLEY

CITY           SKY/WX    TMP DP  RH WIND       PRES   REMARKS
NWS GREEN BAY  MOCLDY    66  64  93 SW7       29.74F
APPLETON       CLOUDY    64  63  94 W12       29.76R
OSHKOSH        CLOUDY    65  62  90 SW3       29.78S
FOND DU LAC    CLOUDY    66  61  84 SW7       29.79F
$$

WIZ022-050-052-221100-
EAST CENTRAL WISCONSIN

CITY           SKY/WX    TMP DP  RH WIND       PRES   REMARKS
EPHRAIM        FAIR      67  63  86 W7        29.69F
WASHINGTON ISL PTSUNNY   68  64  87 SW10      29.68S
STURGEON BAY   CLOUDY    68  63  84 W9        29.71F
MANITOWOC        N/A    N/A N/A N/A MISG        N/A
SHEBOYGAN      CLOUDY    67  66  97 W8        29.77F
$$

LMZ563-521-522-541>543-221100-
LAKESHORE

STATION/POSITION TIME  TEMP    WIND        PRES    VSBY  WAVE
                       AIR SEA DIR/SP/G                  HT/PER
                 (UTC) (F)     (DEG/KT/KT) (MB)    (MI)  (FT/S)
SHEBOYGAN LKSHOR 1000   69     260/ 14/ 18 1007.1F
KEWAUNEE LKSHORE 0942   69     260/  6/  9 1005.9F
NORTHPORT PIER   0930   70     250/  4/ 13 1005.1S
N MID LAKE BUOY  0950   69 68  230/ 14/ 17 1004.8F         2/ 4
S GREEN BAY BUOY 0930   70 72  240/ 14/ 17 1006.2F
SISTER BAY LKSHO 1003   70     270/ 14/ 17   N/A
MENOMINEE LKSHOR 0942   69     240/ 11/ 13 1005.6S
$$




USA.gov is the U.S. government's official web portal to all federal, state and local government web resources and services.